Find Starlink 38072

NORAD ID: 100113 Int'l Des: 2026-166 Owner: SPXS Country: US Constellation: starlink operational

当前视图

正在加载3D地球...

About Starlink 38072

Starlink 38072 (NORAD 100113) is a starlink constellation satellite (v2 mini) launched Jul 21, 2026 by SPXS of US. with a mass of 575.00 kg.

即将过境

Passes for default location (London). Set your location on the main map for personalized predictions.

高度历史

Loading altitude history...

两行轨道根数

1 A0113U 26166N 26228.60432029 .00017520 00000-0 11812-3 0 9993
2 A0113 97.2853 245.2877 0002221 53.9483 306.1988 15.75182445 4118
Epoch: Aug 16, 2026 • Age: 14 hours

当前状态

高度 349.6 km
远地点 / 近地点 N/A
速度 7.70 km/s
星下点 45.57°N, 153.42°W
发射日期 Jul 21, 2026
运行时间 26 days
类型 internet

技术详情

分类 Payload
质量 575.00 kg
干质量 530.00 kg
总质量 575.00 kg
长度 0.30 m
直径 4.10 m
跨度 29.00 m
形状 Box + pan
制造商 SPXS
平台类型 Starlink V2MO
阶段状态 In Orbit
所有者/国家 SPXS/US

Most Searched